星链-5114 (STARLINK-5114 )

导读

STARLINK-5114是美国太空探索技术公司(SpaceX)星链互联网卫星星座的一员,于北京时间2022年10月5日8点发射升空,旨在完成星链星座组网,为全球提供全天候、低时延的高速卫星互联网接入服务,填补地面网络覆盖盲区。该卫星运行在近地轨道,属于Starlink Group批次的组网卫星。

基本信息
目录编号:
54003
目录名称:
STARLINK-5114
国际标识:
2022-125AR
轨道中心:
EARTH
卫星名称:
星链-5114
卫星全名:
星链-5114 (STARLINK-5114 )
卫星状态:
在轨 (已飞行1349 天)
发射日期:
2022-10-05 UTC
国别 :
美国 (US)
星等 :
--
轨道信息
数据来源 国际轨道数据 AOE轨道数据
星历时间 2026-06-14T23:41:27+0800
16小时前
查看轨道信息
2026-06-10T06:00:00+0800
5天前
查看轨道信息
半长轴 6917.9km 6917.874km
偏心率 0.0001329 0.0001384
轨道倾角 53.160° 53.161°
近地点辐角 87.342° 69.069°
升交点赤经 138.553° 159.845°
平近点角 272.773° 105.872°
近地点 538.843km 538.779km
远地点 540.683km 540.695km
周期 95.438分钟 95.437分钟
每日圈数 15.088338 15.088422
详细信息
固有亮度:
5
最大亮度:
2.5
卫星平台:
Starlink v1.5
覆盖范围:
全球
运营商:
太空探索技术公司
运营商所在国:
美国
制造商(研发单位):
太空探索技术公司
制造商所在国:
美国
使用方式:
暂无
卫星简介
星链(Starlink)计划是由太空探索技术公司(SpaceX)提出的一个巨型低轨卫星互联网星座项目,计划在2019年至2024年间在太空搭建由约1.2万颗卫星组成的“星链”网络,其中1584颗将部署在地球上空550千米处的近地轨道,并从2020年开始工作。该卫星仍在工作。
2D轨道图
3D轨道图
轨道高度分析图
轨道倾角分析图
轨道综合分析图
查看轨道综合分析图